This is the latest recevied weather packets stored in our database for station/object DL3GCR-10. If no packets are shown the sender has not sent any weather packets the latest 10 day(s).
| Time | Temp. | Humidity | Pressure | Rain* | Wind** | Luminosity | Snow |
|---|---|---|---|---|---|---|---|
| 1777226818 | 18.33° C | 30% | 1022.1 hPa | - | - | - | - |
| 1777225917 | 18.89° C | 29% | 1022 hPa | - | - | - | - |
| 1777225017 | 19.44° C | 28% | 1021.9 hPa | - | - | - | - |
| 1777224117 | 19.44° C | 28% | 1021.7 hPa | - | - | - | - |
| 1777223217 | 20° C | 28% | 1021.7 hPa | - | - | - | - |
| 1777222316 | 20.56° C | 27% | 1021.7 hPa | - | - | - | - |
| 1777221415 | 20.56° C | 27% | 1021.7 hPa | - | - | - | - |
| 1777220520 | 22.22° C | 24% | 1021.7 hPa | - | - | - | - |
| 1777219620 | 22.78° C | 23% | 1021.7 hPa | - | - | - | - |
| 1777218719 | 23.33° C | 24% | 1021.7 hPa | - | - | - | - |
| 1777217819 | 23.89° C | 23% | 1021.7 hPa | - | - | - | - |
| 1777216919 | 23.89° C | 23% | 1021.9 hPa | - | - | - | - |
| 1777216019 | 25° C | 23% | 1021.9 hPa | - | - | - | - |
| 1777215119 | 25° C | 22% | 1022.1 hPa | - | - | - | - |
| 1777214218 | 25.56° C | 22% | 1022.2 hPa | - | - | - | - |
| 1777213318 | 25.56° C | 22% | 1022.3 hPa | - | - | - | - |
| 1777212418 | 25.56° C | 22% | 1022.5 hPa | - | - | - | - |
| 1777211518 | 25.56° C | 23% | 1022.6 hPa | - | - | - | - |
| 1777210618 | 25.56° C | 24% | 1022.7 hPa | - | - | - | - |
| 1777209718 | 25.56° C | 23% | 1022.8 hPa | - | - | - | - |
| 1777208817 | 25.56° C | 23% | 1022.9 hPa | - | - | - | - |
| 1777207917 | 25° C | 24% | 1023.1 hPa | - | - | - | - |
| 1777207017 | 25° C | 23% | 1023.1 hPa | - | - | - | - |
| 1777206117 | 25° C | 25% | 1023.3 hPa | - | - | - | - |
| 1777205217 | 24.44° C | 26% | 1023.4 hPa | - | - | - | - |
* Rain since midnight (hover to see other rain measurements)
** Current wind speed in m/s (hover to see current wind gust speed)